Location: Newark
(17.1458°N, 89.0741°W)
Time: 22:17:20
(UTC+00:00)

N. Korean satellite - Pass Details

Date: 24 July 2019
Orbit: 457 x 507 km, 97.2° (Epoch: 23 August)

Event Time Altitude Azimuth Distance (km) Brightness Sun altitude
Rises 10:48:24 0° 41° (NE) 2,602 11.6 -10.8°
Reaches altitude 10° 10:51:38 10° 72° (ENE) 1,716 10.9 -10.1°
Maximum altitude 10:53:10 12° 97° (E) 1,577 10.1 -9.7°
Drops below altitude 10° 10:54:42 10° 122° (ESE) 1,711 9.8 -9.4°
Sets 10:57:54 0° 153° (SSE) 2,588 10.3 -8.7°
